Showing default

HULIANWANG DIGUI-88, 65996

Orbit data source: Space-Track

HULIANWANG DIGUI-88, 65996 is a payload satellite owned by Zhongguo Xingwang (CN) in LEO that was launched on Thu, 16 Oct 2025 UTC via a CHANG ZHENG 8A launch vehicle from the Wenchang Satellite Launch Center (WSC). Payload-class satellites include a variety of spacecraft equipped with specific instruments for various scientific and technological missions. These include communications satellites like Starlink; space stations such as the ISS; scientific satellites like the Hubble; Earth observation satellites from companies like Planet Labs, Umbra, and HawkEye 360; GPS; miniature CubeSats for education and research; and military/defense satellites.

Loading next visibility...
Identifier
65996, 2025-231B
Orbit
LEO
Country
Flag of CNCN / PRC
Related business
Manufacturer
CAST
Mission
Operational Civil Communications
Bus & Motor
XINGWANG C, Unknown motor
Mass
~700 kg wet, ~700 kg dry
Launch date (UTC)
2025-10-16 (8 months ago)
Launch vehicle
CHANG ZHENG 8A
Launch site
Wenchang Satellite Launch Center (WSC)
Object type
Payload
Rocket body
Debris
Shape & HBR
Box + 2 Pan, 1.9 m
Radar Cross Section
5.935 m², Large (>1 m²)

Expand to show TLE details & history
Last TLE update: 13 hours ago

TLE from 13 hours ago
0 HULIANWANG DIGUI-88
1 65996U 25231B   26171.33097043 -.00000211  00000-0 -18771-3 0  9997
2 65996  49.9973 164.6132 0000785 248.1076 111.9713 13.29323269 33301
Epoch: 2026-06-20T07:56Z
TLE epoch observation values (Epoch: 2026-06-20T07:56:35.845Z)
Latitude
0.00003°
Longitude
136.91674°
Altitude
1,150.044 km
Speed
7.279 km/s
True Right ascension
10h 58m 27s
True Declination
0° 00' 00"
Sunlit
Object was in daylight at epoch
Visualization orbit readout
Latitude
Unknown
Longitude
Unknown
Altitude
Unknown
Speed
Unknown
Apparent Right ascension
Unknown
Apparent Declination
Unknown
Sunlit
N/A
Visualization observer readout
Local Sidereal Time
07:23:00
Azimuth
Unknown
Elevation
Unknown
Doppler factor
Unknown
Orbital elements
Apogee altitude
1,150.614 km
Perigee altitude
1,149.432 km
Semi-major axis
7,528.16 km
Eccentricity
0.00008
Inclination
49.9973°
RAAN
164.6132°
Arg. of periapsis
248.1076°
True anomaly
111.97964°
Mean anomaly
111.9713°
Eccentric anomaly
111.97547°
Mean motion
3.32284 °/min
Orbital period
108.34 mins
BSTAR
-0.00018771
Loading maneuver chart data...
Computing Atmospheric mass density...
Loading historical data...
Loading historical data...
Loading historical data...
Loading historical data...
Loading historical data...
Loading historical data...
Loading historical data...

Documentation

Showing up to 5 results
|